RH
20 22 57 70 70 74 74 56 77 100 86 59 61 75 93 100 100 100 100 100 100 100 100 100 100 100 100 100 100 100 95 82 96 81 76 64 64 67
21 16 57 58 76 76 67 54 79 99 100 92 71 81 88 100 100 100 100 100 100 100 100 100 100 100 100 100 100 100 100 89 84 74 64 58 57 56
15 18 20 33 72 81 60 59 64 81 100 100 100 82 80 97 99 100 100 100 100 98 100 100 100 100 100 100 100 100 95 80 79 64 59 61 60 58
13 16 20 20 53 60 73 73 70 81 99 100 100 100 98 95 78 82 100 100 93 91 87 100 100 100 100 100 90 77 64 97 82 55 54 62 75 73
12 15 19 21 41 54 80 79 87 87 75 98 100 100 100 100 99 91 93 100 100 100 100 100 100 100 100 89 73 72 97 86 69 57 66 76 87 66
11 14 20 24 30 65 96 96 98 86 67 100 100 100 100 100 100 100 100 100 100 100 100 100 100 94 74 75 74 100 95 76 73 64 78 95 88 73
11 14 20 26 45 64 100 100 100 100 98 95 100 96 88 100 100 100 100 100 100 100 97 99 100 98 92 79 89 100 95 70 80 65 81 82 79 57
11 14 17 20 51 34 82 100 100 100 100 100 100 100 100 100 93 94 100 100 100 98 100 100 100 97 83 100 100 94 75 60 61 86 99 86 59 55
10 13 15 18 27 64 78 100 100 100 100 100 100 100 100 100 100 100 100 100 100 100 100 82 92 100 100 100 98 87 76 78 88 85 88 58 56 83
11 13 14 16 16 18 89 100 100 100 100 100 100 100 100 100 100 100 100 100 100 100 92 100 100 100 100 95 82 86 90 78 82 84 58 53 97 96
11 13 14 18 19 17 19 95 100 100 100 100 100 100 100 100 100 100 100 100 100 100 100 100 100 100 87 92 80 76 74 84 75 65 69 99 100 100
10 11 15 15 20 21 28 99 100 100 100 100 100 100 100 100 100 100 100 100 100 100 100 100 99 100 86 97 84 86 83 69 62 91 100 100 91 82
13 16 17 19 22 24 70 100 100 100 100 100 100 100 100 100 100 100 100 100 100 100 96 100 100 96 99 94 83 82 76 66 97 100 100 95 76 72
41 27 27 25 29 66 36 47 100 100 100 100 100 100 100 100 100 100 100 100 100 100 100 98 100 99 100 96 76 74 100 100 100 99 92 63 60 99
69 61 37 35 64 100 100 90 100 100 100 100 100 100 100 100 100 100 100 100 100 100 100 91 99 100 91 97 84 100 100 100 84 87 73 92 100 100
85 76 67 48 59 100 96 100 100 100 100 100 100 100 100 100 100 100 100 100 100 100 100 100 100 99 97 94 100 100 100 79 91 100 100 100 96 89
100 96 94 100 60 49 62 82 100 100 100 100 100 100 100 100 100 100 100 100 100 99 100 100 94 94 100 100 93 90 74 88 95 95 93 84 96 92
100 100 100 95 75 89 88 91 54 46 79 100 100 100 100 100 100 100 100 100 100 100 100 100 99 95 100 95 100 91 99 92 94 97 79 99 98 54
100 100 100 100 100 100 100 100 90 100 89 81 100 100 100 92 98 100 100 100 100 100 87 94 83 81 56 78 83 78 100 88 88 94 75 56 48 43
100 100 100 100 100 99 95 89 86 96 100 93 90 93 92 96 98 93 90 79 79 94 97 90 100 92 92 85 92 80 96 74 64 58 50 38 29 22
78 100 100 100 100 100 100 85 81 87 89 100 100 100 100 94 97 99 95 98 89 95 98 99 96 84 93 69 68 69 45 48 49 36 28 25 22 20
99 94 96 99 100 100 87 83 80 87 86 90 84 97 100 100 97 100 100 100 86 80 95 83 68 58 62 54 53 54 45 33 23 20 17 14 14 14
95 94 99 98 100 100 100 99 97 93 97 95 88 89 95 100 100 100 100 93 87 80 64 55 55 55 52 48 41 32 25 25 23 20 17 13 12 14
Wind_Speed
103 104 107 105 100 94 90 86 84 84 81 82 82 78 80 78 77 74 72 74 74 74 69 69 71 75 80 79 81 75 81 82 83 81 80 78 77 78
105 103 108 109 106 102 95 89 84 81 79 79 81 81 79 79 80 79 78 77 73 74 72 74 74 78 83 83 84 85 85 86 82 82 83 81 80 79
94 105 108 113 108 106 101 90 81 80 75 77 81 82 81 83 82 80 79 80 78 76 76 78 79 84 86 89 87 86 87 81 83 84 79 82 85 90
87 95 106 110 112 111 102 94 85 79 77 75 78 79 79 80 82 81 81 81 81 79 78 78 82 85 89 89 89 89 84 83 83 83 87 89 91 94
86 87 100 107 112 111 105 99 88 85 79 79 79 77 76 76 78 78 77 78 79 80 79 82 86 88 88 88 89 82 83 84 86 93 91 94 95 97
82 83 94 104 112 110 107 97 87 84 84 80 75 71 70 70 70 74 74 71 76 78 84 87 87 90 91 89 81 82 87 90 94 95 97 97 99 104
83 83 89 100 110 110 108 102 88 83 81 82 78 79 78 76 72 70 71 75 77 78 79 81 85 88 89 90 81 89 92 93 97 98 98 101 106 114
81 83 88 93 109 107 111 105 97 88 86 86 81 76 78 81 81 79 78 79 77 77 78 83 87 93 91 90 94 94 95 97 99 98 101 108 114 115
78 81 85 89 96 109 111 108 101 95 93 89 83 80 84 86 83 81 82 82 79 85 89 91 91 89 93 94 94 96 97 99 103 106 110 114 114 114
74 78 79 82 85 96 114 113 105 99 96 92 88 88 89 90 89 88 88 92 90 91 88 89 92 94 100 102 100 101 101 103 107 112 116 117 114 120
75 77 79 81 85 88 94 112 111 105 101 97 95 100 95 94 97 97 94 95 95 94 91 93 97 103 107 107 108 108 108 111 114 119 118 116 121 123
76 76 79 80 81 86 92 106 108 107 106 103 99 96 99 100 101 98 94 96 95 92 97 100 104 106 109 108 111 109 112 116 120 116 117 122 125 131
73 78 79 77 79 82 94 105 109 110 111 109 105 104 101 98 99 99 97 99 99 103 104 105 108 111 111 113 116 117 116 118 119 118 122 130 135 134
66 76 79 79 77 82 87 96 109 110 106 101 101 103 102 99 101 104 102 100 101 103 108 111 110 114 115 116 122 115 116 121 121 126 131 137 134 141
64 73 81 79 79 87 86 85 95 97 103 104 104 105 104 102 107 105 103 104 105 109 113 117 117 116 119 114 116 114 118 122 128 129 137 138 141 139
65 75 80 82 85 91 90 92 98 104 104 101 102 100 101 105 104 103 106 108 109 112 113 114 115 115 116 116 116 124 122 134 133 137 139 144 152 148
67 75 80 86 87 84 87 92 104 106 107 107 107 103 105 107 106 106 108 109 111 113 109 109 114 114 115 119 127 128 132 131 135 141 141 139 140 134
70 73 78 89 89 88 88 90 92 96 107 111 105 106 103 106 108 107 108 109 110 111 113 114 119 125 128 128 125 128 133 133 138 145 140 127 124 124
72 74 75 81 89 90 88 89 91 91 87 101 106 107 111 113 108 107 109 110 108 111 119 118 121 127 129 129 129 135 139 138 135 125 116 116 118 121
66 80 86 86 93 94 97 94 93 91 91 93 94 98 105 110 111 114 118 116 111 110 116 116 121 126 131 127 131 135 138 119 110 113 115 114 115 114
62 70 81 93 93 96 98 101 96 97 93 95 95 99 102 105 106 112 111 116 121 122 125 124 127 130 132 131 119 110 108 109 111 111 110 107 108 110
54 60 68 76 89 100 103 104 99 99 100 101 100 103 104 107 109 114 121 122 122 127 128 114 112 111 106 103 106 108 109 110 108 106 106 103 101 97
49 52 57 62 70 77 87 95 98 99 100 101 102 101 106 112 113 117 117 110 104 103 106 103 99 101 103 103 105 105 103 101 102 105 108 104 96 93
Wind_Direction
238 238 237 238 239 241 241 243 245 246 245 247 248 250 253 255 256 259 262 266 268 271 274 279 281 281 285 286 289 286 283 292 293 294 296 298 299 301
237 239 237 240 241 242 244 244 244 243 245 247 248 249 251 253 255 257 260 264 267 267 269 272 276 280 283 283 282 283 284 287 292 292 295 297 299 303
234 236 237 238 239 242 244 243 242 242 244 247 249 250 251 254 256 257 260 263 265 268 270 271 276 279 280 279 281 282 283 289 289 291 295 297 300 305
236 234 234 237 237 241 243 241 240 240 243 247 249 250 252 254 256 258 259 263 266 267 271 277 275 275 277 278 280 281 289 288 289 292 295 299 302 303
238 234 233 234 236 239 241 242 239 240 244 244 248 250 253 255 259 261 262 265 267 269 270 272 273 272 274 277 280 287 287 288 290 293 297 299 300 302
238 235 234 232 235 236 238 240 240 242 244 241 243 248 254 258 260 262 264 268 268 267 267 268 271 274 277 280 285 285 286 290 293 295 298 298 299 300
237 234 234 232 233 235 236 238 238 238 239 243 241 244 249 252 254 257 261 261 265 266 267 269 273 274 275 277 283 286 288 291 296 298 297 296 299 301
236 235 234 234 233 236 236 237 239 239 243 239 244 247 251 253 253 255 260 263 266 268 270 271 270 272 278 281 282 285 288 293 297 295 295 299 300 300
234 235 234 234 234 235 236 236 238 241 243 244 245 250 251 254 255 259 261 262 264 265 267 271 278 281 280 280 282 288 291 294 294 294 296 298 300 299
231 233 234 235 235 234 233 235 237 241 241 242 246 252 253 255 257 261 262 261 262 267 272 277 278 276 279 282 286 289 290 291 293 293 297 299 297 300
232 230 233 234 235 234 232 231 235 239 239 244 249 253 253 255 255 258 262 264 264 268 273 274 275 277 281 285 286 288 290 291 293 295 298 297 300 302
232 231 231 233 233 234 230 231 234 236 238 244 247 251 254 256 258 260 265 265 268 271 272 274 277 281 283 285 285 287 289 291 294 297 294 298 301 304
231 229 231 233 233 231 228 229 231 235 241 245 250 252 253 256 259 260 264 267 268 270 272 275 278 280 282 284 286 287 290 293 295 295 297 300 303 306
230 228 230 233 231 233 234 233 232 239 243 245 248 250 252 258 260 262 265 267 267 270 272 276 277 279 283 283 287 292 290 293 294 297 299 303 303 308
226 224 229 234 231 234 234 234 233 237 242 244 246 250 253 256 259 261 265 265 267 271 273 276 279 281 283 287 288 289 292 295 297 299 301 303 304 304
226 222 226 231 231 233 238 236 234 236 240 245 247 248 252 256 259 261 263 265 268 272 275 277 279 282 283 289 289 289 292 296 298 300 300 301 300 302
226 229 226 227 234 236 239 240 235 237 242 243 247 251 254 256 259 263 265 267 270 275 278 278 280 282 286 286 290 294 295 297 297 299 300 300 300 301
230 230 230 228 232 236 239 240 243 243 244 243 247 251 255 257 259 263 267 271 273 274 277 280 281 282 287 287 289 292 293 293 295 297 298 298 298 299
228 225 228 229 232 235 239 244 248 248 251 246 246 252 255 258 261 266 269 271 274 274 278 281 283 285 290 293 290 291 292 294 296 294 296 296 299 299
233 232 228 231 232 234 239 242 245 247 252 255 256 258 261 260 265 267 269 271 273 275 278 281 285 286 287 287 291 289 290 292 294 294 296 299 300 300
236 237 239 236 237 239 241 244 246 249 252 255 259 264 262 266 268 268 269 270 278 279 280 282 284 284 284 289 290 290 291 292 295 296 297 298 299 301
241 243 243 243 242 244 246 249 252 253 256 259 262 261 262 263 268 269 269 272 277 280 281 283 283 286 285 288 289 291 294 295 297 297 296 298 300 304
239 241 244 246 246 247 250 253 255 257 259 261 263 265 265 267 270 271 275 277 277 277 280 283 283 285 287 289 290 292 294 295 295 297 299 303 308 307